Location: Santiago
(33.4378°S, 70.6505°W)
Time: 19:35:55
(UTC+00:00)

ISS - Pass Details

Date: 16 October 2025
Orbit: 414 x 421 km, 51.6° (Epoch: 07 November)

Event Time Altitude Azimuth Distance (km) Brightness Sun altitude
Rises 22:51:54 0° 266° (W) 2,377 2.8 0.2°
Reaches altitude 10° 22:55:05 10° 234° (SW) 1,516 0.4 -0.5°
Maximum altitude 22:56:32 12° 208° (SSW) 1,390 -0.5 -0.8°
Drops below altitude 10° 22:58:00 10° 183° (S) 1,519 -0.7 -1.1°
Sets 23:01:11 0° 151° (SSE) 2,387 -0.1 -1.7°
